Date String (YYYY-MM-DD hh:mm:ss) UTC,Instrument flags,Ambient pressure (hPa),Sample flow (lpm),Bypass flow (lpm),Sample temperature (°C),Ambient temperature (°C),ASC tube jacket temperature (°C),LED temperature (°C),Box temperature (°C),Sample RH (%),Span deviation,Mass concentration (μg/m³),Mass concentration (μg/m³),Mass concentration (μg/m³)
DateTimeUTC,F1_M11,P_M11,Q1_M11,Q2_M11,T1_M11,T2_M11,T3_M11,T4_M11,T5_M11,U1_M11,ZSPAN_M11,X2_M11,X0_M11,X1_M11
2022-11-10 10:00:00,,0820.9,5.00,0.00,22.2,21.0,00.0,31.0,24.0,09.6,0000.0,0000.34,0000.67,0000.20
2022-11-10 10:01:00,,0821.0,5.00,0.00,22.2,20.9,00.0,31.0,24.0,09.5,0000.0,0000.33,0000.74,0000.21
2022-11-10 10:02:00,,0820.9,5.00,0.00,22.2,20.9,00.0,31.0,24.0,09.4,0000.0,0000.33,0000.73,0000.21
2022-11-10 10:03:00,,0820.9,5.00,0.00,22.2,20.8,00.0,31.0,24.0,09.4,0000.0,0000.32,0000.73,0000.20
2022-11-10 10:04:00,,0820.9,5.00,0.00,22.2,20.7,00.0,31.0,24.0,09.3,0000.0,0000.33,0000.75,0000.20
2022-11-10 10:05:00,,0820.9,5.00,0.00,22.1,20.7,00.0,31.0,23.9,09.3,0000.0,0000.31,0000.69,0000.20
2022-11-10 10:06:00,,0820.9,5.00,0.00,22.1,20.7,00.0,31.0,23.9,09.3,0000.0,0000.29,0000.94,0000.20
2022-11-10 10:07:00,,0820.9,4.99,0.00,22.1,20.6,00.0,31.0,23.9,09.4,0000.0,0000.26,0001.80,0000.20
2022-11-10 10:08:00,,0820.9,5.01,0.00,22.1,20.6,00.0,31.0,23.9,09.5,0000.0,0000.28,0001.83,0000.20
2022-11-10 10:09:00,,0820.9,5.00,0.00,22.1,20.5,00.0,31.0,23.9,09.6,0000.0,0000.28,0001.85,0000.19
2022-11-10 10:10:00,,0820.9,5.01,0.00,22.1,20.9,00.0,30.9,23.9,09.2,0000.0,0000.30,0001.92,0000.19
2022-11-10 10:11:00,,0820.9,4.99,0.00,22.2,21.8,00.0,30.9,24.1,09.2,0000.0,0000.31,0001.93,0000.19
2022-11-10 10:12:00,,0820.9,5.00,0.00,22.3,22.4,00.0,31.0,24.3,09.3,0000.0,0000.32,0001.88,0000.19
2022-11-10 10:13:00,,0820.9,4.99,0.00,22.3,22.1,00.0,31.0,24.3,09.5,0000.0,0000.36,0001.97,0000.19
2022-11-10 10:14:00,,0820.9,5.02,0.00,22.3,21.8,00.0,31.0,24.3,09.5,0000.0,0000.37,0001.99,0000.20
2022-11-10 10:15:00,,0820.9,5.01,0.00,22.3,21.5,00.0,31.0,24.2,09.5,0000.0,0000.38,0001.98,0000.21
2022-11-10 10:16:00,,0820.9,5.00,0.00,22.3,21.3,00.0,31.0,24.2,09.4,0000.0,0000.38,0001.98,0000.21
2022-11-10 10:17:00,,0820.9,4.99,0.00,22.3,21.2,00.0,31.0,24.2,09.3,0000.0,0000.37,0001.53,0000.21
2022-11-10 10:18:00,,0820.9,5.01,0.00,22.3,21.1,00.0,31.1,24.1,09.3,0000.0,0000.37,0000.71,0000.21
2022-11-10 10:19:00,,0820.9,5.01,0.00,22.3,21.0,00.0,31.1,24.1,09.3,0000.0,0000.34,0000.65,0000.21
2022-11-10 10:20:00,,0820.9,5.00,0.00,22.3,20.9,00.0,31.0,24.1,09.4,0000.0,0000.37,0000.72,0000.21
2022-11-10 10:21:00,,0821.0,4.99,0.00,22.2,20.9,00.0,31.0,24.1,09.4,0000.0,0000.35,0000.65,0000.22
2022-11-10 10:22:00,,0820.9,5.00,0.00,22.2,20.8,00.0,31.0,24.0,09.4,0000.0,0000.34,0000.63,0000.21
2022-11-10 10:23:00,,0820.9,4.99,0.00,22.2,20.8,00.0,31.0,24.0,09.3,0000.0,0000.35,0000.88,0000.21
2022-11-10 10:24:00,,0820.9,5.00,0.00,22.2,20.8,00.0,31.0,24.0,09.4,0000.0,0000.33,0001.03,0000.21
2022-11-10 10:25:00,,0820.9,5.00,0.00,22.2,20.7,00.0,31.0,24.0,09.5,0000.0,0000.32,0001.01,0000.21
2022-11-10 10:26:00,,0820.9,5.00,0.00,22.2,20.7,00.0,31.0,24.0,09.7,0000.0,0000.32,0001.02,0000.20
2022-11-10 10:27:00,,0821.0,5.00,0.00,22.1,20.6,00.0,31.0,23.9,09.6,0000.0,0000.31,0001.03,0000.19
2022-11-10 10:28:00,,0821.1,5.00,0.00,22.1,20.6,00.0,31.0,23.9,09.6,0000.0,0000.33,0001.05,0000.20
2022-11-10 10:29:00,,0821.0,5.00,0.00,22.1,20.6,00.0,31.0,23.9,09.6,0000.0,0000.33,0001.07,0000.20
2022-11-10 10:30:00,,0821.0,5.00,0.00,22.1,20.6,00.0,31.0,23.9,09.5,0000.0,0000.36,0001.14,0000.20
2022-11-10 10:31:00,,0821.0,5.00,0.00,22.1,20.7,00.0,31.0,23.9,09.5,0000.0,0000.35,0001.10,0000.20
2022-11-10 10:32:00,,0821.0,5.00,0.00,22.2,21.5,00.0,31.0,24.1,09.5,0000.0,0000.37,0001.16,0000.19
2022-11-10 10:33:00,,0821.0,4.99,0.00,22.2,22.3,00.0,31.0,24.3,09.3,0000.0,0000.38,0001.19,0000.20
2022-11-10 10:34:00,,0821.0,4.99,0.00,22.3,22.1,00.0,31.0,24.3,09.2,0000.0,0000.38,0000.96,0000.20
2022-11-10 10:35:00,,0821.0,5.00,0.00,22.3,21.7,00.0,31.0,24.3,09.5,0000.0,0000.38,0000.85,0000.20
2022-11-10 10:36:00,,0821.0,5.00,0.00,22.3,21.5,00.0,31.0,24.2,09.6,0000.0,0000.41,0001.04,0000.20
2022-11-10 10:37:00,,0821.0,4.99,0.00,22.3,21.3,00.0,31.1,24.1,09.7,0000.0,0000.41,0001.03,0000.20
2022-11-10 10:38:00,,0821.1,5.01,0.00,22.3,21.1,00.0,31.1,24.0,09.7,0000.0,0000.42,0001.05,0000.21
2022-11-10 10:39:00,,0821.2,5.00,0.00,22.2,20.9,00.0,31.1,24.0,09.7,0000.0,0000.42,0001.08,0000.20
2022-11-10 10:40:00,,0821.2,5.00,0.00,22.2,20.8,00.0,31.1,24.0,09.8,0000.0,0000.43,0001.11,0000.20
2022-11-10 10:41:00,,0821.1,4.98,0.00,22.2,20.8,00.0,31.1,24.0,09.8,0000.0,0000.40,0001.07,0000.20
2022-11-10 10:42:00,,0821.2,5.01,0.00,22.2,20.8,00.0,31.1,24.0,09.6,0000.0,0000.39,0001.04,0000.20
2022-11-10 10:43:00,,0821.2,5.01,0.00,22.2,20.6,00.0,31.0,23.9,09.8,0000.0,0000.40,0001.04,0000.20
2022-11-10 10:44:00,,0821.2,4.99,0.00,22.1,20.4,00.0,31.0,23.8,09.7,0000.0,0000.39,0001.52,0000.20
2022-11-10 10:45:00,,0821.4,4.99,0.00,22.0,20.2,00.0,31.0,23.7,09.7,0000.0,0000.37,0001.56,0000.20
2022-11-10 10:46:00,,0821.4,5.00,0.00,22.0,20.0,00.0,31.0,23.7,09.7,0000.0,0000.36,0001.49,0000.19
2022-11-10 10:47:00,,0821.4,4.99,0.00,21.9,19.9,00.0,30.9,23.6,09.8,0000.0,0000.35,0001.33,0000.19
2022-11-10 10:48:00,,0821.4,5.00,0.00,21.9,20.0,00.0,30.9,23.6,10.0,0000.0,0000.36,0001.39,0000.19
2022-11-10 10:49:00,,0821.4,5.01,0.00,21.9,21.0,00.0,30.9,23.8,09.8,0000.0,0000.35,0001.46,0000.19
2022-11-10 10:50:00,,0821.5,5.00,0.00,22.0,21.9,00.0,30.9,24.0,09.8,0000.0,0000.33,0001.39,0000.18
2022-11-10 10:51:00,,0821.4,4.98,0.00,22.1,21.9,00.0,30.9,24.1,09.7,0000.0,0000.32,0001.50,0000.17
2022-11-10 10:52:00,,0821.5,5.01,0.00,22.1,21.6,00.0,30.9,24.1,09.5,0000.0,0000.32,0001.78,0000.18
2022-11-10 10:53:00,,0821.6,5.00,0.00,22.1,21.3,00.0,30.9,24.0,09.6,0000.0,0000.32,0001.78,0000.18
2022-11-10 10:54:00,,0821.7,5.00,0.00,22.1,21.0,00.0,30.9,24.0,09.6,0000.0,0000.29,0001.72,0000.18
2022-11-10 10:55:00,,0821.7,5.00,0.00,22.1,20.9,00.0,30.9,23.9,09.7,0000.0,0000.29,0001.26,0000.18
2022-11-10 10:56:00,,0821.7,5.00,0.00,22.1,20.9,00.0,30.9,23.9,09.7,0000.0,0000.29,0001.08,0000.18
2022-11-10 10:57:00,,0821.7,5.00,0.00,22.1,20.8,00.0,30.9,23.9,09.7,0000.0,0000.30,0001.12,0000.17
2022-11-10 10:58:00,,0821.8,5.00,0.00,22.1,20.7,00.0,30.9,23.9,09.8,0000.0,0000.29,0001.09,0000.17
2022-11-10 10:59:00,,0821.8,5.00,0.00,22.1,20.7,00.0,30.9,23.9,09.9,0000.0,0000.28,0001.13,0000.18
